owner,sensor,date,latitude,longitude,air_temperature,qcFlag 
COMPS,ioos:station:USF.COMPS:C10:1,2010-03-01T00:00:00Z,27.1690,-82.9260,11.35,1111122 
COMPS,ioos:station:USF.COMPS:C10:1,2010-03-01T00:20:00Z,27.1690,-82.9260,11.28,1111122 
COMPS,ioos:station:USF.COMPS:C10:1,2010-03-01T00:40:00Z,27.1690,-82.9260,11.23,1111122 
COMPS,ioos:station:USF.COMPS:C10:1,2010-03-01T01:00:00Z,27.1690,-82.9260,11.25,1111122 
COMPS,ioos:station:USF.COMPS:C10:1,2010-03-01T02:20:00Z,27.1690,-82.9260,11.31,1111122 
COMPS,ioos:station:USF.COMPS:C10:1,2010-03-01T02:40:00Z,27.1690,-82.9260,11.3,1111122 
COMPS,ioos:station:USF.COMPS:C10:1,2010-03-01T03:00:00Z,27.1690,-82.9260,11.32,1111122 
COMPS,ioos:station:USF.COMPS:C10:1,2010-03-01T03:20:00Z,27.1690,-82.9260,11.36,1111122 
COMPS,ioos:station:USF.COMPS:C10:1,2010-03-01T03:40:00Z,27.1690,-82.9260,11.43,1111122 
COMPS,ioos:station:USF.COMPS:C10:1,2010-03-01T04:00:00Z,27.1690,-82.9260,11.38,1111122 
COMPS,ioos:station:USF.COMPS:C10:1,2010-03-01T04:20:00Z,27.1690,-82.9260,11.45,1111122 
COMPS,ioos:station:USF.COMPS:C10:1,2010-03-01T04:40:00Z,27.1690,-82.9260,11.44,1111122 
COMPS,ioos:station:USF.COMPS:C10:1,2010-03-01T05:00:00Z,27.1690,-82.9260,11.47,1111122 
COMPS,ioos:station:USF.COMPS:C10:1,2010-03-01T06:20:00Z,27.1690,-82.9260,11.48,1111122 
COMPS,ioos:station:USF.COMPS:C10:1,2010-03-01T06:40:00Z,27.1690,-82.9260,11.39,1111122 
COMPS,ioos:station:USF.COMPS:C10:1,2010-03-01T07:00:00Z,27.1690,-82.9260,11.34,1111122 
COMPS,ioos:station:USF.COMPS:C10:1,2010-03-01T07:20:00Z,27.1690,-82.9260,11.38,1111122 
COMPS,ioos:station:USF.COMPS:C10:1,2010-03-01T07:40:00Z,27.1690,-82.9260,11.31,1111122 
COMPS,ioos:station:USF.COMPS:C10:1,2010-03-01T08:00:00Z,27.1690,-82.9260,11.33,1111122 
COMPS,ioos:station:USF.COMPS:C10:1,2010-03-01T08:20:00Z,27.1690,-82.9260,11.4,1111122 
COMPS,ioos:station:USF.COMPS:C10:1,2010-03-01T08:40:00Z,27.1690,-82.9260,11.35,1111122 
COMPS,ioos:station:USF.COMPS:C10:1,2010-03-01T09:00:00Z,27.1690,-82.9260,11.28,1111122 
COMPS,ioos:station:USF.COMPS:C10:1,2010-03-01T09:20:00Z,27.1690,-82.9260,11.22,1111122 
COMPS,ioos:station:USF.COMPS:C10:1,2010-03-01T09:40:00Z,27.1690,-82.9260,11.25,1111122 
COMPS,ioos:station:USF.COMPS:C10:1,2010-03-01T10:00:00Z,27.1690,-82.9260,11.31,1111122 
COMPS,ioos:station:USF.COMPS:C10:1,2010-03-01T10:20:00Z,27.1690,-82.9260,11.32,1111122 
COMPS,ioos:station:USF.COMPS:C10:1,2010-03-01T10:40:00Z,27.1690,-82.9260,11.32,1111122 
COMPS,ioos:station:USF.COMPS:C10:1,2010-03-01T11:00:00Z,27.1690,-82.9260,11.28,1111122 
COMPS,ioos:station:USF.COMPS:C10:1,2010-03-01T11:20:00Z,27.1690,-82.9260,11.3,1111122 
COMPS,ioos:station:USF.COMPS:C10:1,2010-03-01T11:40:00Z,27.1690,-82.9260,11.32,1111122 
COMPS,ioos:station:USF.COMPS:C10:1,2010-03-01T12:00:00Z,27.1690,-82.9260,11.31,1111122 
COMPS,ioos:station:USF.COMPS:C10:1,2010-03-01T13:20:00Z,27.1690,-82.9260,11.88,1111122 
COMPS,ioos:station:USF.COMPS:C10:1,2010-03-01T13:40:00Z,27.1690,-82.9260,11.82,1111122 
COMPS,ioos:station:USF.COMPS:C10:1,2010-03-01T14:00:00Z,27.1690,-82.9260,11.76,1111122 
COMPS,ioos:station:USF.COMPS:C10:1,2010-03-01T14:20:00Z,27.1690,-82.9260,11.78,1111122 
COMPS,ioos:station:USF.COMPS:C10:1,2010-03-01T14:40:00Z,27.1690,-82.9260,11.88,1111122 
COMPS,ioos:station:USF.COMPS:C10:1,2010-03-01T15:00:00Z,27.1690,-82.9260,12.07,1111122 
COMPS,ioos:station:USF.COMPS:C10:1,2010-03-01T15:20:00Z,27.1690,-82.9260,12.02,1111122 
COMPS,ioos:station:USF.COMPS:C10:1,2010-03-01T15:40:00Z,27.1690,-82.9260,11.91,1111122 
COMPS,ioos:station:USF.COMPS:C10:1,2010-03-01T16:00:00Z,27.1690,-82.9260,12.02,1111122 
COMPS,ioos:station:USF.COMPS:C10:1,2010-03-01T16:20:00Z,27.1690,-82.9260,12.04,1111122 
COMPS,ioos:station:USF.COMPS:C10:1,2010-03-01T16:40:00Z,27.1690,-82.9260,11.95,1111122 
COMPS,ioos:station:USF.COMPS:C10:1,2010-03-01T17:00:00Z,27.1690,-82.9260,11.89,1111122 
COMPS,ioos:station:USF.COMPS:C10:1,2010-03-01T17:20:00Z,27.1690,-82.9260,11.89,1111122 
COMPS,ioos:station:USF.COMPS:C10:1,2010-03-01T17:40:00Z,27.1690,-82.9260,11.84,1111122 
COMPS,ioos:station:USF.COMPS:C10:1,2010-03-01T18:00:00Z,27.1690,-82.9260,11.91,1111122 
COMPS,ioos:station:USF.COMPS:C10:1,2010-03-01T18:20:00Z,27.1690,-82.9260,12.07,1111122 
COMPS,ioos:station:USF.COMPS:C10:1,2010-03-01T18:40:00Z,27.1690,-82.9260,11.95,1111122 
COMPS,ioos:station:USF.COMPS:C10:1,2010-03-01T19:00:00Z,27.1690,-82.9260,11.98,1111122 
COMPS,ioos:station:USF.COMPS:C10:1,2010-03-01T19:20:00Z,27.1690,-82.9260,12.17,1111122 
COMPS,ioos:station:USF.COMPS:C10:1,2010-03-01T19:40:00Z,27.1690,-82.9260,12.45,1111122 
COMPS,ioos:station:USF.COMPS:C10:1,2010-03-01T20:00:00Z,27.1690,-82.9260,12.59,1111122 
COMPS,ioos:station:USF.COMPS:C10:1,2010-03-01T22:20:00Z,27.1690,-82.9260,13.12,1111122 
COMPS,ioos:station:USF.COMPS:C10:1,2010-03-01T22:40:00Z,27.1690,-82.9260,13.18,1111122 
COMPS,ioos:station:USF.COMPS:C10:1,2010-03-01T23:00:00Z,27.1690,-82.9260,13.16,1111122 
COMPS,ioos:station:USF.COMPS:C10:1,2010-03-01T23:20:00Z,27.1690,-82.9260,13.03,1111122 
COMPS,ioos:station:USF.COMPS:C10:1,2010-03-01T23:40:00Z,27.1690,-82.9260,12.97,1111122 
COMPS,ioos:station:USF.COMPS:C10:1,2010-03-02T00:00:00Z,27.1690,-82.9260,13.0,1111122 
COMPS,ioos:station:USF.COMPS:C10:1,2010-03-02T05:20:00Z,27.1690,-82.9260,13.64,1111122 
COMPS,ioos:station:USF.COMPS:C10:1,2010-03-02T05:40:00Z,27.1690,-82.9260,13.6,1111122 
COMPS,ioos:station:USF.COMPS:C10:1,2010-03-02T06:00:00Z,27.1690,-82.9260,13.5,1111122 
COMPS,ioos:station:USF.COMPS:C10:1,2010-03-02T06:20:00Z,27.1690,-82.9260,13.48,1111122 
COMPS,ioos:station:USF.COMPS:C10:1,2010-03-02T06:40:00Z,27.1690,-82.9260,13.44,1111122 
COMPS,ioos:station:USF.COMPS:C10:1,2010-03-02T07:00:00Z,27.1690,-82.9260,1.0,1111122 
COMPS,ioos:station:USF.COMPS:C10:1,2010-03-02T07:20:00Z,27.1690,-82.9260,13.43,1111122 
COMPS,ioos:station:USF.COMPS:C10:1,2010-03-02T07:40:00Z,27.1690,-82.9260,13.58,1111122 
COMPS,ioos:station:USF.COMPS:C10:1,2010-03-02T08:00:00Z,27.1690,-82.9260,13.61,1111122 
COMPS,ioos:station:USF.COMPS:C10:1,2010-03-02T08:20:00Z,27.1690,-82.9260,13.0,1111122 
COMPS,ioos:station:USF.COMPS:C10:1,2010-03-02T08:40:00Z,27.1690,-82.9260,13.0,1111122 
COMPS,ioos:station:USF.COMPS:C10:1,2010-03-02T09:00:00Z,27.1690,-82.9260,13.0,1111122 
COMPS,ioos:station:USF.COMPS:C10:1,2010-03-02T11:20:00Z,27.1690,-82.9260,14.53,1111122 
COMPS,ioos:station:USF.COMPS:C10:1,2010-03-02T11:40:00Z,27.1690,-82.9260,14.61,1111122 
COMPS,ioos:station:USF.COMPS:C10:1,2010-03-02T12:00:00Z,27.1690,-82.9260,14.98,1111122 
COMPS,ioos:station:USF.COMPS:C10:1,2010-03-02T12:20:00Z,27.1690,-82.9260,15.31,1111122 
COMPS,ioos:station:USF.COMPS:C10:1,2010-03-02T12:40:00Z,27.1690,-82.9260,15.66,1111122 
COMPS,ioos:station:USF.COMPS:C10:1,2010-03-02T13:00:00Z,27.1690,-82.9260,15.03,1111122 
COMPS,ioos:station:USF.COMPS:C10:1,2010-03-02T13:20:00Z,27.1690,-82.9260,14.81,1111122 
COMPS,ioos:station:USF.COMPS:C10:1,2010-03-02T13:40:00Z,27.1690,-82.9260,14.72,1111122 
COMPS,ioos:station:USF.COMPS:C10:1,2010-03-02T14:00:00Z,27.1690,-82.9260,14.28,1111122 
COMPS,ioos:station:USF.COMPS:C10:1,2010-03-02T14:20:00Z,27.1690,-82.9260,14.82,1111122 
COMPS,ioos:station:USF.COMPS:C10:1,2010-03-02T14:40:00Z,27.1690,-82.9260,14.95,1111122 
COMPS,ioos:station:USF.COMPS:C10:1,2010-03-02T15:00:00Z,27.1690,-82.9260,15.2,1111122 
COMPS,ioos:station:USF.COMPS:C10:1,2010-03-02T15:20:00Z,27.1690,-82.9260,14.92,1111122 
COMPS,ioos:station:USF.COMPS:C10:1,2010-03-02T15:40:00Z,27.1690,-82.9260,14.8,1111122 
COMPS,ioos:station:USF.COMPS:C10:1,2010-03-02T16:00:00Z,27.1690,-82.9260,14.79,1111122 
COMPS,ioos:station:USF.COMPS:C10:1,2010-03-02T16:20:00Z,27.1690,-82.9260,14.85,1111122 
COMPS,ioos:station:USF.COMPS:C10:1,2010-03-02T16:40:00Z,27.1690,-82.9260,15.24,1111122 
COMPS,ioos:station:USF.COMPS:C10:1,2010-03-02T17:00:00Z,27.1690,-82.9260,15.48,1111122 
COMPS,ioos:station:USF.COMPS:C10:1,2010-03-02T20:20:00Z,27.1690,-82.9260,14.91,1111122 
COMPS,ioos:station:USF.COMPS:C10:1,2010-03-02T20:40:00Z,27.1690,-82.9260,15.03,1111122 
COMPS,ioos:station:USF.COMPS:C10:1,2010-03-02T21:00:00Z,27.1690,-82.9260,15.03,1111122 
COMPS,ioos:station:USF.COMPS:C10:1,2010-03-02T23:20:00Z,27.1690,-82.9260,14.42,1111122 
COMPS,ioos:station:USF.COMPS:C10:1,2010-03-02T23:40:00Z,27.1690,-82.9260,14.46,1111122 
COMPS,ioos:station:USF.COMPS:C10:1,2010-03-03T00:00:00Z,27.1690,-82.9260,14.29,1111122 
COMPS,ioos:station:USF.COMPS:C10:1,2010-03-03T00:20:00Z,27.1690,-82.9260,13.32,1111122 
COMPS,ioos:station:USF.COMPS:C10:1,2010-03-03T00:40:00Z,27.1690,-82.9260,13.58,1111122 
COMPS,ioos:station:USF.COMPS:C10:1,2010-03-03T01:00:00Z,27.1690,-82.9260,13.43,1111122 
COMPS,ioos:station:USF.COMPS:C10:1,2010-03-03T01:20:00Z,27.1690,-82.9260,13.54,1111122 
COMPS,ioos:station:USF.COMPS:C10:1,2010-03-03T01:40:00Z,27.1690,-82.9260,13.35,1111122 
COMPS,ioos:station:USF.COMPS:C10:1,2010-03-03T02:00:00Z,27.1690,-82.9260,13.17,1111122 
COMPS,ioos:station:USF.COMPS:C10:1,2010-03-03T02:20:00Z,27.1690,-82.9260,13.06,1111122 
COMPS,ioos:station:USF.COMPS:C10:1,2010-03-03T02:40:00Z,27.1690,-82.9260,12.9,1111122 
COMPS,ioos:station:USF.COMPS:C10:1,2010-03-03T03:00:00Z,27.1690,-82.9260,12.75,1111122 
COMPS,ioos:station:USF.COMPS:C10:1,2010-03-03T03:20:00Z,27.1690,-82.9260,12.49,1111122 
COMPS,ioos:station:USF.COMPS:C10:1,2010-03-03T03:40:00Z,27.1690,-82.9260,12.4,1111122 
COMPS,ioos:station:USF.COMPS:C10:1,2010-03-03T04:00:00Z,27.1690,-82.9260,12.34,1111122 
COMPS,ioos:station:USF.COMPS:C10:1,2010-03-03T04:20:00Z,27.1690,-82.9260,12.55,1111122 
COMPS,ioos:station:USF.COMPS:C10:1,2010-03-03T04:40:00Z,27.1690,-82.9260,12.27,1111122 
COMPS,ioos:station:USF.COMPS:C10:1,2010-03-03T05:00:00Z,27.1690,-82.9260,12.27,1111122 
COMPS,ioos:station:USF.COMPS:C10:1,2010-03-03T07:20:00Z,27.1690,-82.9260,10.61,1111122 
COMPS,ioos:station:USF.COMPS:C10:1,2010-03-03T07:40:00Z,27.1690,-82.9260,10.51,1111122 
COMPS,ioos:station:USF.COMPS:C10:1,2010-03-03T08:00:00Z,27.1690,-82.9260,10.47,1111122 
COMPS,ioos:station:USF.COMPS:C10:1,2010-03-03T08:20:00Z,27.1690,-82.9260,10.17,1111122 
COMPS,ioos:station:USF.COMPS:C10:1,2010-03-03T08:40:00Z,27.1690,-82.9260,10.14,1111122 
COMPS,ioos:station:USF.COMPS:C10:1,2010-03-03T09:00:00Z,27.1690,-82.9260,10.11,1111122 
COMPS,ioos:station:USF.COMPS:C10:1,2010-03-03T09:20:00Z,27.1690,-82.9260,9.89,1111122 
COMPS,ioos:station:USF.COMPS:C10:1,2010-03-03T09:40:00Z,27.1690,-82.9260,9.84,1111122 
COMPS,ioos:station:USF.COMPS:C10:1,2010-03-03T10:00:00Z,27.1690,-82.9260,9.84,1111122 
COMPS,ioos:station:USF.COMPS:C10:1,2010-03-03T10:20:00Z,27.1690,-82.9260,9.85,1111122 
COMPS,ioos:station:USF.COMPS:C10:1,2010-03-03T10:40:00Z,27.1690,-82.9260,10.12,1111122 
COMPS,ioos:station:USF.COMPS:C10:1,2010-03-03T11:00:00Z,27.1690,-82.9260,10.05,1111122 
COMPS,ioos:station:USF.COMPS:C10:1,2010-03-03T11:20:00Z,27.1690,-82.9260,10.19,1111122 
COMPS,ioos:station:USF.COMPS:C10:1,2010-03-03T11:40:00Z,27.1690,-82.9260,9.99,1111122 
COMPS,ioos:station:USF.COMPS:C10:1,2010-03-03T12:00:00Z,27.1690,-82.9260,9.9,1111122 
COMPS,ioos:station:USF.COMPS:C10:1,2010-03-03T12:20:00Z,27.1690,-82.9260,9.66,1111122 
COMPS,ioos:station:USF.COMPS:C10:1,2010-03-03T12:40:00Z,27.1690,-82.9260,9.73,1111122 
COMPS,ioos:station:USF.COMPS:C10:1,2010-03-03T13:00:00Z,27.1690,-82.9260,9.73,1111122 
COMPS,ioos:station:USF.COMPS:C10:1,2010-03-03T15:20:00Z,27.1690,-82.9260,10.73,1111122 
COMPS,ioos:station:USF.COMPS:C10:1,2010-03-03T15:40:00Z,27.1690,-82.9260,10.12,1111122 
COMPS,ioos:station:USF.COMPS:C10:1,2010-03-03T16:00:00Z,27.1690,-82.9260,10.55,1111122 
COMPS,ioos:station:USF.COMPS:C10:1,2010-03-03T16:20:00Z,27.1690,-82.9260,10.78,1111122 
COMPS,ioos:station:USF.COMPS:C10:1,2010-03-03T16:40:00Z,27.1690,-82.9260,10.68,1111122 
COMPS,ioos:station:USF.COMPS:C10:1,2010-03-03T17:00:00Z,27.1690,-82.9260,10.81,1111122 
COMPS,ioos:station:USF.COMPS:C10:1,2010-03-03T17:20:00Z,27.1690,-82.9260,10.27,1111122 
COMPS,ioos:station:USF.COMPS:C10:1,2010-03-03T17:40:00Z,27.1690,-82.9260,10.29,1111122 
COMPS,ioos:station:USF.COMPS:C10:1,2010-03-03T18:00:00Z,27.1690,-82.9260,10.37,1111122 
COMPS,ioos:station:USF.COMPS:C10:1,2010-03-03T18:20:00Z,27.1690,-82.9260,10.36,1111122 
COMPS,ioos:station:USF.COMPS:C10:1,2010-03-03T18:40:00Z,27.1690,-82.9260,10.15,1111122 
COMPS,ioos:station:USF.COMPS:C10:1,2010-03-03T19:00:00Z,27.1690,-82.9260,10.08,1111122 
COMPS,ioos:station:USF.COMPS:C10:1,2010-03-03T19:20:00Z,27.1690,-82.9260,10.12,1111122 
COMPS,ioos:station:USF.COMPS:C10:1,2010-03-03T19:40:00Z,27.1690,-82.9260,10.11,1111122 
COMPS,ioos:station:USF.COMPS:C10:1,2010-03-03T20:00:00Z,27.1690,-82.9260,10.13,1111122 
COMPS,ioos:station:USF.COMPS:C10:1,2010-03-03T20:20:00Z,27.1690,-82.9260,10.14,1111122 
COMPS,ioos:station:USF.COMPS:C10:1,2010-03-03T20:40:00Z,27.1690,-82.9260,10.33,1111122 
COMPS,ioos:station:USF.COMPS:C10:1,2010-03-03T21:00:00Z,27.1690,-82.9260,10.33,1111122 
COMPS,ioos:station:USF.COMPS:C10:1,2010-03-03T21:20:00Z,27.1690,-82.9260,10.73,1111122 
COMPS,ioos:station:USF.COMPS:C10:1,2010-03-03T21:40:00Z,27.1690,-82.9260,10.71,1111122 
COMPS,ioos:station:USF.COMPS:C10:1,2010-03-03T22:00:00Z,27.1690,-82.9260,11.02,1111122 
COMPS,ioos:station:USF.COMPS:C10:1,2010-03-03T23:20:00Z,27.1690,-82.9260,10.82,1111122 
COMPS,ioos:station:USF.COMPS:C10:1,2010-03-03T23:40:00Z,27.1690,-82.9260,10.97,1111122 
COMPS,ioos:station:USF.COMPS:C10:1,2010-03-04T01:00:00Z,27.1690,-82.9260,10.97,1111122 
COMPS,ioos:station:USF.COMPS:C10:1,2010-03-04T02:20:00Z,27.1690,-82.9260,11.08,1111122 
COMPS,ioos:station:USF.COMPS:C10:1,2010-03-04T02:40:00Z,27.1690,-82.9260,11.3,1111122 
COMPS,ioos:station:USF.COMPS:C10:1,2010-03-04T03:00:00Z,27.1690,-82.9260,11.41,1111122 
COMPS,ioos:station:USF.COMPS:C10:1,2010-03-04T04:20:00Z,27.1690,-82.9260,11.47,1111122 
COMPS,ioos:station:USF.COMPS:C10:1,2010-03-04T04:40:00Z,27.1690,-82.9260,11.44,1111122 
COMPS,ioos:station:USF.COMPS:C10:1,2010-03-04T05:00:00Z,27.1690,-82.9260,11.43,1111122 
COMPS,ioos:station:USF.COMPS:C10:1,2010-03-04T06:20:00Z,27.1690,-82.9260,11.11,1111122 
COMPS,ioos:station:USF.COMPS:C10:1,2010-03-04T06:40:00Z,27.1690,-82.9260,11.0,1111122 
COMPS,ioos:station:USF.COMPS:C10:1,2010-03-04T07:00:00Z,27.1690,-82.9260,11.0,1111122 
COMPS,ioos:station:USF.COMPS:C10:1,2010-03-04T07:20:00Z,27.1690,-82.9260,11.03,1111122 
COMPS,ioos:station:USF.COMPS:C10:1,2010-03-04T07:40:00Z,27.1690,-82.9260,11.03,1111122 
COMPS,ioos:station:USF.COMPS:C10:1,2010-03-04T08:00:00Z,27.1690,-82.9260,11.03,1111122 
COMPS,ioos:station:USF.COMPS:C10:1,2010-03-04T08:20:00Z,27.1690,-82.9260,10.98,1111122 
COMPS,ioos:station:USF.COMPS:C10:1,2010-03-04T08:40:00Z,27.1690,-82.9260,11.0,1111122 
COMPS,ioos:station:USF.COMPS:C10:1,2010-03-04T09:00:00Z,27.1690,-82.9260,11.0,1111122 
COMPS,ioos:station:USF.COMPS:C10:1,2010-03-04T10:20:00Z,27.1690,-82.9260,11.53,1111122 
COMPS,ioos:station:USF.COMPS:C10:1,2010-03-04T10:40:00Z,27.1690,-82.9260,11.22,1111122 
COMPS,ioos:station:USF.COMPS:C10:1,2010-03-04T11:00:00Z,27.1690,-82.9260,11.22,1111122 
COMPS,ioos:station:USF.COMPS:C10:1,2010-03-04T11:20:00Z,27.1690,-82.9260,10.61,1111122 
COMPS,ioos:station:USF.COMPS:C10:1,2010-03-04T11:40:00Z,27.1690,-82.9260,10.14,1111122 
COMPS,ioos:station:USF.COMPS:C10:1,2010-03-04T12:00:00Z,27.1690,-82.9260,10.14,1111122 
COMPS,ioos:station:USF.COMPS:C10:1,2010-03-04T12:20:00Z,27.1690,-82.9260,9.59,1111122 
COMPS,ioos:station:USF.COMPS:C10:1,2010-03-04T12:40:00Z,27.1690,-82.9260,9.4,1111122 
COMPS,ioos:station:USF.COMPS:C10:1,2010-03-04T13:00:00Z,27.1690,-82.9260,9.4,1111122 
COMPS,ioos:station:USF.COMPS:C10:1,2010-03-04T13:20:00Z,27.1690,-82.9260,9.29,1111122 
COMPS,ioos:station:USF.COMPS:C10:1,2010-03-04T13:40:00Z,27.1690,-82.9260,9.32,1111122 
COMPS,ioos:station:USF.COMPS:C10:1,2010-03-04T14:00:00Z,27.1690,-82.9260,9.25,1111122 
COMPS,ioos:station:USF.COMPS:C10:1,2010-03-04T14:20:00Z,27.1690,-82.9260,9.07,1111122 
COMPS,ioos:station:USF.COMPS:C10:1,2010-03-04T14:40:00Z,27.1690,-82.9260,9.1,1111122 
COMPS,ioos:station:USF.COMPS:C10:1,2010-03-04T15:00:00Z,27.1690,-82.9260,9.1,1111122 
COMPS,ioos:station:USF.COMPS:C10:1,2010-03-04T15:20:00Z,27.1690,-82.9260,9.06,1111122 
COMPS,ioos:station:USF.COMPS:C10:1,2010-03-04T15:40:00Z,27.1690,-82.9260,9.06,1111122 
COMPS,ioos:station:USF.COMPS:C10:1,2010-03-04T16:00:00Z,27.1690,-82.9260,9.12,1111122 
COMPS,ioos:station:USF.COMPS:C10:1,2010-03-04T16:20:00Z,27.1690,-82.9260,9.18,1111122 
COMPS,ioos:station:USF.COMPS:C10:1,2010-03-04T16:40:00Z,27.1690,-82.9260,8.89,1111122 
COMPS,ioos:station:USF.COMPS:C10:1,2010-03-04T17:00:00Z,27.1690,-82.9260,8.81,1111122 
COMPS,ioos:station:USF.COMPS:C10:1,2010-03-04T17:20:00Z,27.1690,-82.9260,8.71,1111122 
COMPS,ioos:station:USF.COMPS:C10:1,2010-03-04T17:40:00Z,27.1690,-82.9260,8.63,1111122 
COMPS,ioos:station:USF.COMPS:C10:1,2010-03-04T18:00:00Z,27.1690,-82.9260,8.64,1111122 
COMPS,ioos:station:USF.COMPS:C10:1,2010-03-04T19:20:00Z,27.1690,-82.9260,8.48,1111122 
COMPS,ioos:station:USF.COMPS:C10:1,2010-03-04T19:40:00Z,27.1690,-82.9260,8.55,1111122 
COMPS,ioos:station:USF.COMPS:C10:1,2010-03-04T20:00:00Z,27.1690,-82.9260,8.65,1111122 
COMPS,ioos:station:USF.COMPS:C10:1,2010-03-04T20:20:00Z,27.1690,-82.9260,8.68,1111122 
COMPS,ioos:station:USF.COMPS:C10:1,2010-03-04T20:40:00Z,27.1690,-82.9260,8.72,1111122 
COMPS,ioos:station:USF.COMPS:C10:1,2010-03-04T21:00:00Z,27.1690,-82.9260,8.93,1111122 
COMPS,ioos:station:USF.COMPS:C10:1,2010-03-04T22:20:00Z,27.1690,-82.9260,9.36,1111122 
COMPS,ioos:station:USF.COMPS:C10:1,2010-03-04T22:40:00Z,27.1690,-82.9260,9.39,1111122 
COMPS,ioos:station:USF.COMPS:C10:1,2010-03-04T23:00:00Z,27.1690,-82.9260,9.38,1111122 
COMPS,ioos:station:USF.COMPS:C10:1,2010-03-04T23:20:00Z,27.1690,-82.9260,9.41,1111122 
COMPS,ioos:station:USF.COMPS:C10:1,2010-03-04T23:40:00Z,27.1690,-82.9260,9.28,1111122 
COMPS,ioos:station:USF.COMPS:C10:1,2010-03-05T00:00:00Z,27.1690,-82.9260,9.29,1111122 
COMPS,ioos:station:USF.COMPS:C10:1,2010-03-05T06:20:00Z,27.1690,-82.9260,9.88,1111122 
COMPS,ioos:station:USF.COMPS:C10:1,2010-03-05T06:40:00Z,27.1690,-82.9260,9.85,1111122 
COMPS,ioos:station:USF.COMPS:C10:1,2010-03-05T07:00:00Z,27.1690,-82.9260,9.85,1111122 
COMPS,ioos:station:USF.COMPS:C10:1,2010-03-05T07:20:00Z,27.1690,-82.9260,9.92,1111122 
COMPS,ioos:station:USF.COMPS:C10:1,2010-03-05T07:40:00Z,27.1690,-82.9260,9.92,1111122 
COMPS,ioos:station:USF.COMPS:C10:1,2010-03-05T08:00:00Z,27.1690,-82.9260,9.92,1111122 
COMPS,ioos:station:USF.COMPS:C10:1,2010-03-05T08:20:00Z,27.1690,-82.9260,9.95,1111122 
COMPS,ioos:station:USF.COMPS:C10:1,2010-03-05T08:40:00Z,27.1690,-82.9260,9.97,1111122 
COMPS,ioos:station:USF.COMPS:C10:1,2010-03-05T09:00:00Z,27.1690,-82.9260,9.95,1111122 
COMPS,ioos:station:USF.COMPS:C10:1,2010-03-05T09:20:00Z,27.1690,-82.9260,10.05,1111122 
COMPS,ioos:station:USF.COMPS:C10:1,2010-03-05T09:40:00Z,27.1690,-82.9260,10.08,1111122 
COMPS,ioos:station:USF.COMPS:C10:1,2010-03-05T10:00:00Z,27.1690,-82.9260,10.16,1111122 
COMPS,ioos:station:USF.COMPS:C10:1,2010-03-05T10:20:00Z,27.1690,-82.9260,10.2,1111122 
COMPS,ioos:station:USF.COMPS:C10:1,2010-03-05T10:40:00Z,27.1690,-82.9260,10.25,1111122 
COMPS,ioos:station:USF.COMPS:C10:1,2010-03-05T11:00:00Z,27.1690,-82.9260,10.36,1111122 
COMPS,ioos:station:USF.COMPS:C10:1,2010-03-05T11:20:00Z,27.1690,-82.9260,10.17,1111122 
COMPS,ioos:station:USF.COMPS:C10:1,2010-03-05T11:40:00Z,27.1690,-82.9260,9.99,1111122 
COMPS,ioos:station:USF.COMPS:C10:1,2010-03-05T12:00:00Z,27.1690,-82.9260,10.03,1111122 
COMPS,ioos:station:USF.COMPS:C10:1,2010-03-05T12:20:00Z,27.1690,-82.9260,10.1,1111122 
COMPS,ioos:station:USF.COMPS:C10:1,2010-03-05T12:40:00Z,27.1690,-82.9260,10.18,1111122 
COMPS,ioos:station:USF.COMPS:C10:1,2010-03-05T13:00:00Z,27.1690,-82.9260,10.11,1111122 
COMPS,ioos:station:USF.COMPS:C10:1,2010-03-05T13:20:00Z,27.1690,-82.9260,10.15,1111122 
COMPS,ioos:station:USF.COMPS:C10:1,2010-03-05T13:40:00Z,27.1690,-82.9260,10.13,1111122 
COMPS,ioos:station:USF.COMPS:C10:1,2010-03-05T14:00:00Z,27.1690,-82.9260,10.27,1111122 
COMPS,ioos:station:USF.COMPS:C10:1,2010-03-05T14:20:00Z,27.1690,-82.9260,10.11,1111122 
COMPS,ioos:station:USF.COMPS:C10:1,2010-03-05T14:40:00Z,27.1690,-82.9260,10.1,1111122 
COMPS,ioos:station:USF.COMPS:C10:1,2010-03-05T15:00:00Z,27.1690,-82.9260,9.79,1111122 
COMPS,ioos:station:USF.COMPS:C10:1,2010-03-05T15:20:00Z,27.1690,-82.9260,9.73,1111122 
COMPS,ioos:station:USF.COMPS:C10:1,2010-03-05T15:40:00Z,27.1690,-82.9260,9.73,1111122 
COMPS,ioos:station:USF.COMPS:C10:1,2010-03-05T16:00:00Z,27.1690,-82.9260,9.73,1111122 
COMPS,ioos:station:USF.COMPS:C10:1,2010-03-05T16:20:00Z,27.1690,-82.9260,9.62,1111122 
COMPS,ioos:station:USF.COMPS:C10:1,2010-03-05T16:40:00Z,27.1690,-82.9260,9.65,1111122 
COMPS,ioos:station:USF.COMPS:C10:1,2010-03-05T17:00:00Z,27.1690,-82.9260,9.76,1111122 
COMPS,ioos:station:USF.COMPS:C10:1,2010-03-05T17:20:00Z,27.1690,-82.9260,9.82,1111122 
COMPS,ioos:station:USF.COMPS:C10:1,2010-03-05T17:40:00Z,27.1690,-82.9260,9.82,1111122 
COMPS,ioos:station:USF.COMPS:C10:1,2010-03-05T18:00:00Z,27.1690,-82.9260,9.83,1111122 
COMPS,ioos:station:USF.COMPS:C10:1,2010-03-05T18:20:00Z,27.1690,-82.9260,9.75,1111122 
COMPS,ioos:station:USF.COMPS:C10:1,2010-03-05T18:40:00Z,27.1690,-82.9260,9.66,1111122 
COMPS,ioos:station:USF.COMPS:C10:1,2010-03-05T19:00:00Z,27.1690,-82.9260,9.69,1111122 
COMPS,ioos:station:USF.COMPS:C10:1,2010-03-05T19:20:00Z,27.1690,-82.9260,9.7,1111122 
COMPS,ioos:station:USF.COMPS:C10:1,2010-03-05T19:40:00Z,27.1690,-82.9260,9.76,1111122 
COMPS,ioos:station:USF.COMPS:C10:1,2010-03-05T20:00:00Z,27.1690,-82.9260,9.81,1111122 
COMPS,ioos:station:USF.COMPS:C10:1,2010-03-05T20:20:00Z,27.1690,-82.9260,9.72,1111122 
COMPS,ioos:station:USF.COMPS:C10:1,2010-03-05T20:40:00Z,27.1690,-82.9260,9.73,1111122 
COMPS,ioos:station:USF.COMPS:C10:1,2010-03-05T21:00:00Z,27.1690,-82.9260,9.73,1111122 
COMPS,ioos:station:USF.COMPS:C10:1,2010-03-05T21:20:00Z,27.1690,-82.9260,9.73,1111122 
COMPS,ioos:station:USF.COMPS:C10:1,2010-03-05T21:40:00Z,27.1690,-82.9260,9.92,1111122 
COMPS,ioos:station:USF.COMPS:C10:1,2010-03-05T22:00:00Z,27.1690,-82.9260,9.89,1111122 
COMPS,ioos:station:USF.COMPS:C10:1,2010-03-05T22:20:00Z,27.1690,-82.9260,10.03,1111122 
COMPS,ioos:station:USF.COMPS:C10:1,2010-03-05T22:40:00Z,27.1690,-82.9260,10.12,1111122 
COMPS,ioos:station:USF.COMPS:C10:1,2010-03-05T23:00:00Z,27.1690,-82.9260,10.14,1111122 
COMPS,ioos:station:USF.COMPS:C10:1,2010-03-05T23:20:00Z,27.1690,-82.9260,10.15,1111122 
COMPS,ioos:station:USF.COMPS:C10:1,2010-03-05T23:40:00Z,27.1690,-82.9260,10.16,1111122 
COMPS,ioos:station:USF.COMPS:C10:1,2010-03-06T00:00:00Z,27.1690,-82.9260,10.27,1111122 
COMPS,ioos:station:USF.COMPS:C10:1,2010-03-06T00:20:00Z,27.1690,-82.9260,10.33,1111122 
COMPS,ioos:station:USF.COMPS:C10:1,2010-03-06T00:40:00Z,27.1690,-82.9260,10.33,1111122 
COMPS,ioos:station:USF.COMPS:C10:1,2010-03-06T01:00:00Z,27.1690,-82.9260,10.33,1111122 
COMPS,ioos:station:USF.COMPS:C10:1,2010-03-06T01:20:00Z,27.1690,-82.9260,10.3,1111122 
COMPS,ioos:station:USF.COMPS:C10:1,2010-03-06T01:40:00Z,27.1690,-82.9260,10.27,1111122 
COMPS,ioos:station:USF.COMPS:C10:1,2010-03-06T02:00:00Z,27.1690,-82.9260,10.22,1111122 
COMPS,ioos:station:USF.COMPS:C10:1,2010-03-06T02:20:00Z,27.1690,-82.9260,10.29,1111122 
COMPS,ioos:station:USF.COMPS:C10:1,2010-03-06T02:40:00Z,27.1690,-82.9260,10.46,1111122 
COMPS,ioos:station:USF.COMPS:C10:1,2010-03-06T03:00:00Z,27.1690,-82.9260,10.47,1111122 
COMPS,ioos:station:USF.COMPS:C10:1,2010-03-06T05:20:00Z,27.1690,-82.9260,11.05,1111122 
COMPS,ioos:station:USF.COMPS:C10:1,2010-03-06T05:40:00Z,27.1690,-82.9260,11.03,1111122 
COMPS,ioos:station:USF.COMPS:C10:1,2010-03-06T06:00:00Z,27.1690,-82.9260,11.02,1111122 
COMPS,ioos:station:USF.COMPS:C10:1,2010-03-06T07:20:00Z,27.1690,-82.9260,11.05,1111122 
COMPS,ioos:station:USF.COMPS:C10:1,2010-03-06T07:40:00Z,27.1690,-82.9260,11.01,1111122 
COMPS,ioos:station:USF.COMPS:C10:1,2010-03-06T08:00:00Z,27.1690,-82.9260,11.0,1111122 
COMPS,ioos:station:USF.COMPS:C10:1,2010-03-06T08:20:00Z,27.1690,-82.9260,10.97,1111122 
COMPS,ioos:station:USF.COMPS:C10:1,2010-03-06T08:40:00Z,27.1690,-82.9260,10.99,1111122 